Location: Allos
(44.2333°N, 6.6333°E)
Time: 12:09:07
(UTC+00:00)

Lacrosse 5 rocket - Pass Details

Date: 01 December 2020
Orbit: 461 x 634 km, 57.0° (Epoch: 25 January)

Event Time Altitude Azimuth Distance (km) Brightness Sun altitude
Rises 18:22:10 0° 287° (WNW) 2,507 5.8 -25.5°
Reaches altitude 10° 18:25:15 10° 315° (NW) 1,618 4.2 -26.1°
Enters shadow 18:26:16 13° 331° (NNW) 1,462 3.7 -26.3°
